User: anonymous   Login
Location: Boursonne
(49.2024°N, 3.0468°E)
Time: 12:27:05
(UTC+00:00)
Language:

Resurs 01 Rocket - Orbit

View from above orbital plane
View from above orbital plane
View from above satellite
View from above satellite

Ground track
Ground track

The orbit data is extracted from the following two-line orbital elements,

1 23343U 94074B   21138.13421678  .00000016  00000-0  94456-5 0  9996
2 23343  97.9485 193.2269 0007681 143.3453 238.2767 14.76879463428022
Epoch (UTC): 18 May 2021 03:13:16
Eccentricity: 0.0007681
inclination: 97.9485°
perigee height: 634 km
apogee height: 644 km
right ascension of ascending node: 193.2269°
argument of perigee: 143.3453°
revolutions per day: 14.76879463
mean anomaly at epoch: 238.2767°
orbit number at epoch: 42802

The dashed part of the orbit path shows where the satellite is in the earth's shadow,  

DLR